Flag for Mozambique Weather past 2 weeks in Maputo, Mozambique

Now
63 °F

Clear.


Feels Like: 63 °F
Forecast: 62 / 77 °F
Wind: 7 mph from North

Location: Maputo / Mavalane

Current Time: Jul 30, 2015 at 4:51:37 AM

Latest Report: Jul 30, 2015 at 4:00 AM


Visibility: 10 mi

Pressure: 29.86 "Hg

Humidity: 64%

Dew point: 50 °F

Location of MaputoLocation

Historic Weather in Maputo — Graph

°F

Maputo temperature yesterday

Maximum temperature yesterday: 91 °F (at 1:00 PM)
Minimum temperature yesterday: 59 °F (at 4:00 AM)
Average temperature yesterday: 71 °F

Past Weeks' High & Low Weather Summary

 TemperatureHumidityPressure
High91 °F (Jul 29, 1:00 PM)100% (Jul 24, 3:00 AM)30.36 "Hg (Jul 24, 3:00 AM)
Low50 °F (Jul 18, 7:00 AM)7% (Jul 17, 4:00 PM)29.83 "Hg (Jul 17, 5:00 AM)
Average69 °F68%30.11 "Hg
* Reported Jul 15 5:00 AM — Midnight between Jul 29 and Jul 30, Maputo, Weather by CustomWeather, © 2015

Note: Actual official high and low records may vary slightly from our data, if they occured in-between our weather recording intervals... More about our weather records

Advertising

Maputo weather history for previous 24 hours

 ConditionsComfort  
Time TempWeatherWind HumidityBarometerVisibility
12:00 AM
Thu, Jul 30
66 °FClear.6 mph60%29.92 "Hg10 mi
11:10 PM
Wed, Jul 29
66 °FClear.12 mph83%29.92 "Hg10 mi
11:00 PM66 °FClear.6 mph83%29.92 "Hg10 mi
10:10 PM70 °FClear.10 mph73%29.92 "Hg10 mi
9:00 PM73 °FClear.13 mph44%29.92 "Hg10 mi
7:00 PM73 °FClear.10 mph44%29.89 "Hg10 mi
6:00 PM75 °FClear.8 mph44%29.89 "Hg10 mi
5:00 PM81 °FClear.7 mph34%29.89 "Hg10 mi
4:00 PM84 °FSunny.13 mph27%29.89 "Hg10 mi
3:00 PM86 °FSunny.14 mph27%29.89 "Hg10 mi
2:00 PM86 °FSunny.16 mph29%29.92 "Hg10 mi
1:00 PM91 °FSunny.12 mph24%29.98 "Hg10 mi
12:00 PM64 °FSunny.13 mph73%30.01 "Hg10 mi
10:00 AM75 °FSunny.16 mph54%30.04 "Hg10 mi
9:00 AM70 °FSunny.18 mph64%30.07 "Hg10 mi
8:00 AM66 °FSunny.15 mph68%30.07 "Hg10 mi
7:00 AM61 °FSunny.14 mph77%30.07 "Hg10 mi
6:00 AM59 °FSunny.9 mph82%30.07 "Hg10 mi
5:00 AM59 °FClear.7 mph82%30.07 "Hg10 mi
4:00 AM59 °FClear.7 mph82%30.07 "Hg10 mi
Weather by CustomWeather, © 2015

See weather overviewHow to use our weather pages